STARLINK-3129 (49453 NORAD) Tracking and Keplerian Element Data

This shows tracking and keplerian element data for the satellite.

Feedback or suggestion? Click here.




ElementValue
Catalog49453
NameSTARLINK-3129
Epoch Orbit371
Epoch Day339.91667824
Epoch Year2021
RAAN22.2029
Inclination53.2186
Eccentricity0.0002032
Argument of Perigee29.3796
Mean Anonmoly56.5267
Mean Motion15.73201373
Decay Rate0.00047805
L11 49453U 21104AX 21339.91667824 .00047805 00000+0 34306-3 0 9996
L22 49453 53.2186 22.2029 0002032 29.3796 56.5267 15.73201373 3716

Live tracking and technical data element details for STARLINK-3129 (NORAD 49453). STARLINK-3129 can be tracked NOW for your location showing map with azimuth and elevation plus other details from your city location.

Track the satellite on the map from your city or location and see movement details for azimuth, elevation, latitude, longitude, range, height, and movement on the map or in text.







IsCatalogInMostPopularTable: catalog: 49453, numindb: 3
Update: records affected: 1



GetName: 49453 STARLINK-3129

Hit Count: updated at: Wed, 08 Dec 2021 16:41:59 GMT